Showing default

IMPULSE-2 MIRA, 62673

Orbit data source: Space-Track

IMPULSE-2 MIRA, 62673 is a payload satellite owned by Impulse Space (US) in SSO that was launched on Tue, 14 Jan 2025 UTC via an FALCON 9 launch vehicle from the Air Force Western Test Range (AFWTR). Payload-class satellites include a variety of spacecraft equipped with specific instruments for various scientific and technological missions. These include communications satellites like Starlink; space stations such as the ISS; scientific satellites like the Hubble; Earth observation satellites from companies like Planet Labs, Umbra, and HawkEye 360; GPS; miniature CubeSats for education and research; and military/defense satellites.

Loading next visibility...
Identifier
62673, 2025-009BS
Orbit
SSO
Country
Flag of USUS
Related business
Manufacturer
Impulse Space
Mission
Operational Commercial Technology
Bus & Motor
MIRA, AOCS
Mass
250 kg wet, 200 kg dry
Launch date (UTC)
2025-01-14 (1 year ago)
Launch vehicle
FALCON 9
Launch site
Air Force Western Test Range (AFWTR)
Object type
Payload
Rocket body
Debris
Shape & HBR
Box, 1.2 m
Radar Cross Section
0.575 m², Large (>1 m²)

Expand to show TLE details & history
Last TLE update: 9 hours ago

TLE from 9 hours ago
0 IMPULSE-2 MIRA
1 62673U 25009BS  26171.47801973  .00007402  00000-0  30012-3 0  9998
2 62673  97.3865 245.3959 0003272 151.5628 208.5789 15.24922962137094
Epoch: 2026-06-20T11:28Z
TLE epoch observation values (Epoch: 2026-06-20T11:28:20.904Z)
Latitude
-0.00003°
Longitude
164.61673°
Altitude
496.089 km
Speed
7.616 km/s
True Right ascension
16h 21m 35s
True Declination
0° 00' 00"
Sunlit
Object was in full shadow at epoch
Visualization orbit readout
Latitude
Unknown
Longitude
Unknown
Altitude
Unknown
Speed
Unknown
Apparent Right ascension
Unknown
Apparent Declination
Unknown
Sunlit
N/A
Visualization observer readout
Local Sidereal Time
07:21:18
Azimuth
Unknown
Elevation
Unknown
Doppler factor
Unknown
Orbital elements
Apogee altitude
490.222 km
Perigee altitude
485.729 km
Semi-major axis
6,866.112 km
Eccentricity
0.00033
Inclination
97.3865°
RAAN
245.3959°
Arg. of periapsis
151.5628°
True anomaly
208.56097°
Mean anomaly
208.5789°
Eccentric anomaly
208.56993°
Mean motion
3.81484 °/min
Orbital period
94.37 mins
BSTAR
0.00030012
Loading maneuver chart data...
Computing Atmospheric mass density...
Loading historical data...
Loading historical data...
Loading historical data...
Loading historical data...
Loading historical data...
Loading historical data...
Loading historical data...

Documentation

Showing up to 5 results
|